Weather History for KBKF - September, 2013

Change the Weather History Date:

Tuesday, September 24, 2013

  Actual Average Record
Temperature  
Mean Temperature 58 °F -  
Max Temperature 73 °F 70 °F 82 °F (2001)
Min Temperature 44 °F 44 °F 28 °F (2000)
Degree Days  
Heating Degree Days 6    
Growing Degree Days 8 (Base 50)    
Moisture  
Dew Point 34 °F    
Average Humidity 41    
Maximum Humidity 62    
Minimum Humidity 25    
Precipitation  
Precipitation 0.00 in - - ()
Sea Level Pressure  
Sea Level Pressure 29.93 in    
Wind  
Wind Speed 10 mph (South)    
Max Wind Speed 23 mph    
Max Gust Speed 33 mph    
Averages and records for this station are not official NWS values.
T = Trace of Precipitation, MM = Missing Value Source: NWS Daily Summary

Daily Weather History Graph

Daily Weather History Graph

Search for Another Location

Airport or City:

Trip Planner

Search our weather history database for the weather conditions in past years. The results will help you decide how hot, cold, wet, or windy it might be!

Date:

Astronomy

Sep. 24, 2013 Rise Set
Actual Time 6:48 AM MDT 6:52 PM MDT
Civil Twilight 6:21 AM MDT 7:19 PM MDT
Nautical Twilight 5:50 AM MDT 7:50 PM MDT
Astronomical Twilight 5:18 AM MDT 8:22 PM MDT
Moon 10:12 PM MDT (9/24) 12:04 PM MDT (9/24)
Length of Visible Light 12h 57m
Length of Day
12h 03m
Waning Gibbous, 72% of the Moon is Illuminated
Sep 24
Waning Gibbous
Sep 26
Last Quarter
Oct 4
New
Oct 11
First Quarter
Oct 18
Full

Hourly Weather History & Observations

Time (MDT) Temp. Windchill Dew Point Humidity Pressure Visibility Wind Dir Wind Speed Gust Speed Precip Events Conditions
12:55 AM 48.2 °F - 32.0 °F 54% 29.97 in 25.0 mi South 6.9 mph - N/A   Clear
1:55 AM 46.4 °F 42.9 °F 33.8 °F 62% 29.99 in 25.0 mi South 6.9 mph - N/A   Clear
2:55 AM 46.4 °F 41.5 °F 32.0 °F 57% 29.99 in 25.0 mi South 10.4 mph - N/A   Clear
3:55 AM 44.6 °F 40.2 °F 32.0 °F 61% 29.98 in 25.0 mi South 8.1 mph - N/A   Clear
4:55 AM 44.6 °F 40.2 °F 32.0 °F 61% 29.99 in 25.0 mi South 8.1 mph - N/A   Clear
5:55 AM 46.4 °F 41.5 °F 32.0 °F 57% 30.00 in 25.0 mi South 10.4 mph - N/A   Clear
6:55 AM 46.4 °F 41.9 °F 30.2 °F 53% 30.04 in 70.0 mi South 9.2 mph - N/A   Scattered Clouds
7:55 AM 50.0 °F - 32.0 °F 50% 30.05 in 70.0 mi South 8.1 mph - N/A   Scattered Clouds
8:55 AM 55.4 °F - 32.0 °F 41% 30.06 in 70.0 mi South 6.9 mph - N/A   Scattered Clouds
9:55 AM 60.8 °F - 32.0 °F 34% 30.04 in 70.0 mi SW 4.6 mph - N/A   Scattered Clouds
10:55 AM 64.4 °F - 30.2 °F 28% 30.04 in 70.0 mi South 8.1 mph - N/A   Scattered Clouds
11:55 AM 68.0 °F - 32.0 °F 26% 30.00 in 70.0 mi SSE 11.5 mph - N/A   Scattered Clouds
12:55 PM 71.6 °F - 33.8 °F 25% 29.96 in 70.0 mi ESE 8.1 mph - N/A   Partly Cloudy
1:55 PM 73.4 °F - 35.6 °F 25% 29.93 in 70.0 mi SSE 9.2 mph - N/A   Partly Cloudy
2:55 PM 73.4 °F - 37.4 °F 27% 29.90 in 70.0 mi SE 13.8 mph 21.9 mph N/A   Partly Cloudy
3:55 PM 73.4 °F - 35.6 °F 25% 29.86 in 70.0 mi SE 13.8 mph - N/A   Partly Cloudy
4:55 PM 73.4 °F - 39.2 °F 29% 29.85 in 70.0 mi SE 10.4 mph - N/A   Partly Cloudy
5:55 PM 69.8 °F - 41.0 °F 35% 29.86 in 70.0 mi SE 10.4 mph - N/A   Partly Cloudy
6:55 PM 62.6 °F - 37.4 °F 39% 29.85 in 25.0 mi SSE 11.5 mph - N/A   Partly Cloudy
7:55 PM 60.8 °F - 37.4 °F 42% 29.84 in 25.0 mi South 15.0 mph - N/A   Partly Cloudy
8:55 PM 60.8 °F - 35.6 °F 39% 29.80 in 25.0 mi SSW 21.9 mph 29.9 mph N/A   Partly Cloudy
9:55 PM 60.8 °F - 33.8 °F 36% 29.77 in 25.0 mi South 23.0 mph 33.4 mph N/A   Partly Cloudy
10:55 PM 59.0 °F - 35.6 °F 42% 29.75 in 25.0 mi South 21.9 mph - N/A   Partly Cloudy
11:55 PM 59.0 °F - 35.6 °F 42% 29.72 in 25.0 mi South 15.0 mph - N/A   Partly Cloudy